United States

Cheney, KS Weather Archive

Below you will find the last 24 hours of weather readings for Cheney KS

Cheney KS Today's Weather Data

Observed at: Cheney, KS

Hour Observerd Temp Pressure Visibility Humidity Dew Point Wind
08:00 Sunny, with a high near 68 -459.7°F (-273.2°C) - - % -459.7°F (-273.2°C) -
07:00 Partly Cloudy 43°F (6.1°C) 101.59 kPa 10 miles 60% 30°F (-1.1°C) 11 mph S 173.75°21 mph
06:00 Partly Cloudy 44°F (6.7°C) 101.59 kPa 10 miles 58% 30°F (-1.1°C) 12 mph S 173.75°
05:00 Partly Cloudy 44°F (6.7°C) 101.59 kPa 10 miles 58% 30°F (-1.1°C) 12 mph S 173.75°
04:00 Partly Cloudy 42°F (5.6°C) 101.59 kPa 10 miles 62% 30°F (-1.1°C) 11 mph S 173.75°26 mph
03:00 Partly Cloudy 44°F (6.7°C) 101.59 kPa 10 miles 58% 30°F (-1.1°C) 12 mph S 173.75°26 mph
02:00 Partly Cloudy 46°F (7.8°C) 101.59 kPa 10 miles 54% 30°F (-1.1°C) 12 mph S 173.75°
01:00 Mostly Cloudy 48°F (8.9°C) 101.59 kPa 10 miles 50% 30°F (-1.1°C) 12 mph S 173.75°
00:00 Mostly Cloudy 48°F (8.9°C) 101.59 kPa 10 miles 50% 30°F (-1.1°C) 12 mph S 173.75°29 mph
23:00 Fair 48°F (8.9°C) 101.59 kPa 10 miles 52% 30.9°F (-0.6°C) 10 mph S 173.75°29 mph
22:00 Fair 51°F (10.6°C) 101.59 kPa 10 miles 46% 30.9°F (-0.6°C) 13 mph S 173.75°24 mph
21:00 Fair 51°F (10.6°C) 101.59 kPa 10 miles 48% 32°F (0°C) 12 mph S 173.75°23 mph
20:00 Fair 51°F (10.6°C) 101.59 kPa 10 miles 48% 32°F (0°C) 12 mph S 173.75°23 mph
19:00 Partly Cloudy 52°F (11.1°C) 101.59 kPa 10 miles 49% 33.1°F (0.6°C) 11 mph S 173.75°18 mph
18:00 Partly Cloudy 55°F (12.8°C) 101.59 kPa 10 miles 42% 32°F (0°C) 13 mph S 173.75°27 mph
17:00 A Few Clouds and Breezy 63°F (17.2°C) 101.59 kPa 10 miles 34% 34°F (1.1°C) 21 mph S 173.75°32 mph
16:00 A Few Clouds and Breezy 63°F (17.2°C) 101.59 kPa 10 miles 34% 34°F (1.1°C) 21 mph S 173.75°32 mph
15:00 Mostly Cloudy and Breezy 64°F (17.8°C) 101.59 kPa 10 miles 34% 35.1°F (1.7°C) 24 mph S 173.75°34 mph
14:00 Partly Cloudy and Breezy 65°F (18.3°C) 101.59 kPa 10 miles 34% 36°F (2.2°C) 24 mph S 173.75°35 mph
13:00 Partly Cloudy and Windy 63°F (17.2°C) 101.59 kPa 10 miles 35% 35.1°F (1.7°C) 28 mph S 173.75°41 mph
12:00 Fair and Windy 63°F (17.2°C) 101.59 kPa 10 miles 29% 30.2°F (-1°C) 26 mph SW 218.75°32 mph
11:00 Partly Cloudy and Breezy 58°F (14.4°C) 101.59 kPa 10 miles 41% 34°F (1.1°C) 24 mph S 173.75°35 mph
10:00 Partly Cloudy 54°F (12.2°C) 101.59 kPa 10 miles 43% 32°F (0°C) 19 mph S 173.75°31 mph
09:00 Partly Cloudy 54°F (12.2°C) 101.59 kPa 10 miles 43% 32°F (0°C) 19 mph S 173.75°31 mph


Home | Earthquakes | About Us | Contact Us | Privacy

Copyright Friendly Forecast 2012 - 2021